PGT2303 LTAF-LTAI

Flight info

Callsign PGT2303
Flight time 0h 52m
Altitude 27000
Route MANAZ W74 MUT/N0362F260 DCT UTUSO DCT DERYA
Aircraft A20N/M-SDE2E3FGHIRWXY/LB1

Departure

Time 2026-04-16 13:54
Airport Adana Şakirpaşa Airport (LTAF)

Arrival

Time 2026-04-16 14:46
Airport Antalya International Airport (LTAI)
Time Latitude Longitude Altitude Speed Heading
2026-04-16 13:31 36.98382 35.29476 71 ft 0 kts 231°
2026-04-16 13:32 36.98381 35.29479 62 ft 0 kts 172°
2026-04-16 13:32 36.98398 35.29514 69 ft 0 kts 142°
2026-04-16 13:45 36.98406 35.29506 63 ft 2 kts 138°
2026-04-16 13:45 36.98417 35.29493 61 ft 2 kts 140°
2026-04-16 13:45 36.98430 35.29481 64 ft 2 kts 162°
2026-04-16 13:45 36.98446 35.29478 68 ft 2 kts 186°
2026-04-16 13:46 36.98460 35.29486 70 ft 2 kts 223°
2026-04-16 13:46 36.98467 35.29495 67 ft 0 kts 237°
2026-04-16 13:49 36.98464 35.29491 67 ft 3 kts 237°
2026-04-16 13:49 36.98424 35.29426 62 ft 15 kts 231°
2026-04-16 13:49 36.98367 35.29328 67 ft 14 kts 237°
2026-04-16 13:49 36.98382 35.29252 70 ft 10 kts 321°
2026-04-16 13:50 36.98431 35.29166 70 ft 15 kts 278°
2026-04-16 13:50 36.98450 35.29009 62 ft 21 kts 278°
2026-04-16 13:50 36.98455 35.28850 66 ft 18 kts 244°
2026-04-16 13:50 36.98369 35.28703 65 ft 24 kts 233°
2026-04-16 13:51 36.98260 35.28515 61 ft 29 kts 233°
2026-04-16 13:51 36.98131 35.28296 59 ft 34 kts 234°
2026-04-16 13:51 36.97983 35.28048 64 ft 37 kts 233°
2026-04-16 13:51 36.97829 35.27787 57 ft 39 kts 233°
2026-04-16 13:52 36.97661 35.27503 61 ft 42 kts 233°
2026-04-16 13:52 36.97497 35.27226 56 ft 32 kts 233°
2026-04-16 13:52 36.97386 35.27019 59 ft 21 kts 253°
2026-04-16 13:52 36.97429 35.26863 56 ft 19 kts 319°
2026-04-16 13:53 36.97496 35.26824 58 ft 2 kts 32°
2026-04-16 13:53 36.97513 35.26861 54 ft 10 kts 57°
2026-04-16 13:53 36.97524 35.26879 58 ft 0 kts 53°
2026-04-16 13:53 36.97613 35.27031 62 ft 73 kts 53°
2026-04-16 13:54 36.98125 35.27892 178 ft 164 kts 53°
2026-04-16 13:54 36.98897 35.29189 672 ft 207 kts 53°
2026-04-16 13:54 36.99783 35.30759 1635 ft 222 kts 57°
2026-04-16 13:54 37.00638 35.32415 3015 ft 237 kts 58°
2026-04-16 13:55 37.01574 35.34231 4199 ft 257 kts 58°
2026-04-16 13:55 37.02568 35.36112 5671 ft 262 kts 57°
2026-04-16 13:55 37.03594 35.38027 7126 ft 266 kts 56°
2026-04-16 13:55 37.04643 35.39963 8511 ft 272 kts 56°
2026-04-16 13:56 37.05715 35.41940 9900 ft 278 kts 55°
2026-04-16 13:56 37.06834 35.44000 10899 ft 298 kts 56°
2026-04-16 13:56 37.07868 35.46363 11593 ft 324 kts 71°
2026-04-16 13:56 37.08164 35.49246 12374 ft 344 kts 94°
2026-04-16 13:57 37.07533 35.52166 13526 ft 353 kts 115°
2026-04-16 13:57 37.06090 35.54667 14560 ft 360 kts 136°
2026-04-16 13:57 37.04007 35.56440 15581 ft 367 kts 156°
2026-04-16 13:58 36.98932 35.57044 17609 ft 378 kts 194°
2026-04-16 13:58 36.96489 35.55803 18543 ft 383 kts 212°
2026-04-16 13:58 36.94456 35.53664 19479 ft 384 kts 230°
2026-04-16 13:58 36.93021 35.50849 20396 ft 387 kts 247°
2026-04-16 13:59 36.92308 35.47613 21286 ft 390 kts 264°
2026-04-16 13:59 36.92376 35.44208 22181 ft 394 kts 280°
2026-04-16 13:59 36.93214 35.40933 23058 ft 399 kts 294°
2026-04-16 13:59 36.94336 35.37745 23834 ft 404 kts 289°
2026-04-16 14:00 36.95007 35.34364 24570 ft 407 kts 278°
2026-04-16 14:00 36.95153 35.30815 25218 ft 411 kts 269°
2026-04-16 14:00 36.94939 35.27252 25337 ft 412 kts 263°
2026-04-16 14:00 36.94517 35.23710 25417 ft 413 kts 261°
2026-04-16 14:01 36.94114 35.20157 25514 ft 413 kts 265°
2026-04-16 14:01 36.93966 35.16527 25625 ft 413 kts 268°
2026-04-16 14:01 36.93849 35.12983 25727 ft 413 kts 268°
2026-04-16 14:01 36.93733 35.09392 25838 ft 414 kts 268°
2026-04-16 14:02 36.93620 35.05794 25872 ft 414 kts 268°
2026-04-16 14:02 36.93508 35.02192 25868 ft 415 kts 268°
2026-04-16 14:02 36.93395 34.98546 25870 ft 415 kts 268°
2026-04-16 14:02 36.93284 34.94998 25876 ft 415 kts 268°
2026-04-16 14:03 36.93170 34.91395 25879 ft 415 kts 268°
2026-04-16 14:03 36.93055 34.87766 25884 ft 415 kts 268°
2026-04-16 14:03 36.92940 34.84172 25821 ft 415 kts 268°
2026-04-16 14:03 36.92823 34.80570 25417 ft 413 kts 268°
2026-04-16 14:04 36.92705 34.76997 25014 ft 410 kts 268°
2026-04-16 14:04 36.92588 34.73458 24774 ft 406 kts 268°
2026-04-16 14:04 36.92470 34.69923 24810 ft 409 kts 268°
2026-04-16 14:04 36.92353 34.66425 25110 ft 413 kts 268°
2026-04-16 14:05 36.92230 34.62770 25457 ft 412 kts 268°
2026-04-16 14:05 36.92108 34.59196 25570 ft 411 kts 268°
2026-04-16 14:05 36.91985 34.55624 25680 ft 412 kts 268°
2026-04-16 14:05 36.91861 34.52047 25783 ft 412 kts 268°
2026-04-16 14:06 36.91735 34.48462 25899 ft 413 kts 268°
2026-04-16 14:06 36.91608 34.44881 25943 ft 413 kts 268°
2026-04-16 14:06 36.91481 34.41311 25949 ft 412 kts 268°
2026-04-16 14:06 36.91344 34.37732 25956 ft 413 kts 267°
2026-04-16 14:07 36.91193 34.34158 25958 ft 413 kts 267°
2026-04-16 14:07 36.91037 34.30577 25966 ft 412 kts 267°
2026-04-16 14:07 36.90881 34.26989 25966 ft 412 kts 267°
2026-04-16 14:07 36.90727 34.23418 25969 ft 413 kts 267°
2026-04-16 14:08 36.90572 34.19843 25973 ft 413 kts 267°
2026-04-16 14:08 36.90417 34.16260 25976 ft 413 kts 267°
2026-04-16 14:08 36.90263 34.12722 25980 ft 413 kts 267°
2026-04-16 14:08 36.90105 34.09137 25978 ft 413 kts 267°
2026-04-16 14:09 36.89946 34.05545 25983 ft 413 kts 267°
2026-04-16 14:09 36.89786 34.01958 25986 ft 414 kts 267°
2026-04-16 14:09 36.89625 33.98378 25984 ft 413 kts 267°
2026-04-16 14:09 36.89463 33.94797 25987 ft 413 kts 267°
2026-04-16 14:10 36.89300 33.91210 25985 ft 414 kts 267°
2026-04-16 14:10 36.89135 33.87619 25982 ft 413 kts 267°
2026-04-16 14:10 36.88970 33.84033 25984 ft 413 kts 267°
2026-04-16 14:10 36.88803 33.80452 25975 ft 413 kts 267°
2026-04-16 14:11 36.88636 33.76866 25975 ft 414 kts 266°
2026-04-16 14:11 36.88468 33.73287 25975 ft 414 kts 266°
2026-04-16 14:11 36.88297 33.69693 25972 ft 414 kts 266°
2026-04-16 14:11 36.88127 33.66111 25971 ft 414 kts 266°
2026-04-16 14:12 36.87955 33.62518 25965 ft 414 kts 266°
2026-04-16 14:12 36.87782 33.58932 25965 ft 414 kts 266°
2026-04-16 14:12 36.87608 33.55342 25961 ft 414 kts 266°
2026-04-16 14:12 36.87433 33.51761 25961 ft 414 kts 266°
2026-04-16 14:13 36.87257 33.48175 25955 ft 414 kts 266°
2026-04-16 14:13 36.87079 33.44582 25956 ft 414 kts 266°
2026-04-16 14:13 36.86900 33.40991 25955 ft 414 kts 266°
2026-04-16 14:13 36.86720 33.37404 25950 ft 414 kts 266°
2026-04-16 14:14 36.86539 33.33808 25953 ft 414 kts 266°
2026-04-16 14:14 36.86263 33.30233 25954 ft 414 kts 261°
2026-04-16 14:14 36.85670 33.26715 25952 ft 415 kts 255°
2026-04-16 14:14 36.84805 33.23270 25949 ft 415 kts 252°
2026-04-16 14:15 36.83925 33.19849 25951 ft 415 kts 252°
2026-04-16 14:15 36.83051 33.16417 25951 ft 414 kts 253°
2026-04-16 14:15 36.82181 33.12993 25954 ft 414 kts 253°
2026-04-16 14:15 36.81309 33.09570 25950 ft 413 kts 253°
2026-04-16 14:16 36.80435 33.06143 25949 ft 414 kts 252°
2026-04-16 14:16 36.79857 33.03881 25955 ft 414 kts 253°
2026-04-16 14:16 36.78685 32.99303 25955 ft 414 kts 252°
2026-04-16 14:16 36.77818 32.95924 25958 ft 414 kts 252°
2026-04-16 14:17 36.77225 32.93615 25956 ft 414 kts 252°
2026-04-16 14:17 36.76347 32.90201 25962 ft 414 kts 252°
2026-04-16 14:17 36.75467 32.86782 25960 ft 413 kts 252°
2026-04-16 14:17 36.74590 32.83379 25962 ft 413 kts 252°
2026-04-16 14:18 36.73710 32.79972 25963 ft 413 kts 252°
2026-04-16 14:18 36.72831 32.76570 25964 ft 413 kts 252°
2026-04-16 14:18 36.71948 32.73159 25962 ft 413 kts 252°
2026-04-16 14:18 36.71067 32.69757 25960 ft 412 kts 252°
2026-04-16 14:19 36.70185 32.66361 25961 ft 412 kts 252°
2026-04-16 14:19 36.69303 32.62966 25966 ft 412 kts 252°
2026-04-16 14:19 36.68430 32.59611 25960 ft 412 kts 252°
2026-04-16 14:19 36.67534 32.56173 25962 ft 411 kts 252°
2026-04-16 14:20 36.66662 32.52832 25959 ft 411 kts 252°
2026-04-16 14:20 36.65777 32.49445 25957 ft 411 kts 252°
2026-04-16 14:20 36.64957 32.46307 25954 ft 409 kts 252°
2026-04-16 14:20 36.64073 32.42928 25954 ft 410 kts 252°
2026-04-16 14:21 36.63193 32.39572 25942 ft 412 kts 252°
2026-04-16 14:21 36.62303 32.36182 25940 ft 413 kts 252°
2026-04-16 14:21 36.61408 32.32777 25930 ft 414 kts 252°
2026-04-16 14:21 36.60513 32.29380 25930 ft 414 kts 252°
2026-04-16 14:22 36.59617 32.25981 25925 ft 414 kts 252°
2026-04-16 14:22 36.58721 32.22584 25916 ft 414 kts 252°
2026-04-16 14:22 36.57821 32.19179 25911 ft 413 kts 252°
2026-04-16 14:22 36.56935 32.15834 25913 ft 413 kts 252°
2026-04-16 14:23 36.56034 32.12432 25908 ft 414 kts 252°
2026-04-16 14:23 36.55132 32.09033 25907 ft 414 kts 252°
2026-04-16 14:23 36.54230 32.05636 25898 ft 413 kts 252°
2026-04-16 14:23 36.53328 32.02246 25892 ft 413 kts 252°
2026-04-16 14:24 36.52424 31.98856 25895 ft 414 kts 252°
2026-04-16 14:24 36.51517 31.95453 25891 ft 413 kts 252°
2026-04-16 14:24 36.50611 31.92062 25889 ft 414 kts 252°
2026-04-16 14:24 36.49706 31.88678 25888 ft 413 kts 252°
2026-04-16 14:25 36.48798 31.85285 25881 ft 413 kts 252°
2026-04-16 14:25 36.47890 31.81902 25880 ft 413 kts 252°
2026-04-16 14:25 36.46979 31.78507 25880 ft 413 kts 252°
2026-04-16 14:25 36.46070 31.75125 25875 ft 413 kts 252°
2026-04-16 14:26 36.45298 31.71681 25871 ft 413 kts 258°
2026-04-16 14:26 36.44880 31.68156 25871 ft 413 kts 265°
2026-04-16 14:26 36.44747 31.64601 25874 ft 413 kts 268°
2026-04-16 14:26 36.44632 31.61025 25871 ft 413 kts 267°
2026-04-16 14:27 36.44509 31.57452 25866 ft 413 kts 267°
2026-04-16 14:27 36.44382 31.53897 25868 ft 413 kts 267°
2026-04-16 14:27 36.44258 31.50446 25868 ft 414 kts 267°
2026-04-16 14:27 36.44127 31.46859 25870 ft 414 kts 267°
2026-04-16 14:28 36.43996 31.43289 25865 ft 414 kts 267°
2026-04-16 14:28 36.43865 31.39719 25863 ft 414 kts 267°
2026-04-16 14:28 36.43733 31.36155 25862 ft 414 kts 267°
2026-04-16 14:28 36.43599 31.32588 25862 ft 414 kts 267°
2026-04-16 14:29 36.43464 31.29002 25860 ft 414 kts 267°
2026-04-16 14:29 36.43328 31.25430 25859 ft 414 kts 267°
2026-04-16 14:29 36.43193 31.21898 25859 ft 415 kts 267°
2026-04-16 14:29 36.43054 31.18285 25857 ft 415 kts 267°
2026-04-16 14:30 36.42914 31.14702 25862 ft 415 kts 267°
2026-04-16 14:30 36.42774 31.11122 25861 ft 415 kts 267°
2026-04-16 14:30 36.42632 31.07540 25860 ft 415 kts 267°
2026-04-16 14:30 36.42490 31.03976 25859 ft 416 kts 267°
2026-04-16 14:31 36.42346 31.00384 25856 ft 415 kts 267°
2026-04-16 14:31 36.42202 30.96800 25827 ft 413 kts 266°
2026-04-16 14:31 36.42059 30.93282 25741 ft 403 kts 266°
2026-04-16 14:31 36.41943 30.89867 25610 ft 388 kts 271°
2026-04-16 14:32 36.42371 30.86644 25465 ft 373 kts 288°
2026-04-16 14:32 36.43547 30.83865 25313 ft 359 kts 307°
2026-04-16 14:32 36.45350 30.81770 24910 ft 355 kts 326°
2026-04-16 14:32 36.47611 30.80583 24370 ft 356 kts 347°
2026-04-16 14:33 36.50073 30.80464 23857 ft 356 kts
2026-04-16 14:33 36.52373 30.81416 23388 ft 354 kts 29°
2026-04-16 14:33 36.54375 30.83184 22637 ft 355 kts 33°
2026-04-16 14:33 36.56638 30.84468 21633 ft 363 kts 14°
2026-04-16 14:34 36.59172 30.84758 20540 ft 372 kts 355°
2026-04-16 14:34 36.61756 30.84181 19352 ft 383 kts 346°
2026-04-16 14:34 36.64373 30.83363 18085 ft 394 kts 346°
2026-04-16 14:34 36.67057 30.82618 16904 ft 391 kts 349°
2026-04-16 14:35 36.69706 30.82012 15717 ft 382 kts 351°
2026-04-16 14:35 36.72311 30.81506 14533 ft 375 kts 352°
2026-04-16 14:35 36.74857 30.81059 13712 ft 362 kts 353°
2026-04-16 14:35 36.77266 30.80653 13404 ft 335 kts 353°
2026-04-16 14:36 36.79488 30.80282 13152 ft 310 kts 353°
2026-04-16 14:36 36.81549 30.79938 12964 ft 288 kts 353°
2026-04-16 14:36 36.83475 30.79616 12812 ft 271 kts 353°
2026-04-16 14:36 36.85286 30.79311 12688 ft 254 kts 353°
2026-04-16 14:37 36.86986 30.79025 12553 ft 238 kts 354°
2026-04-16 14:37 36.88576 30.78765 12385 ft 225 kts 355°
2026-04-16 14:37 36.90120 30.78575 12001 ft 221 kts 356°
2026-04-16 14:37 36.91651 30.78408 11589 ft 220 kts 356°
2026-04-16 14:38 36.93175 30.78242 11197 ft 218 kts 356°
2026-04-16 14:38 36.94681 30.78068 10768 ft 217 kts 356°
2026-04-16 14:38 36.96183 30.77888 10356 ft 216 kts 356°
2026-04-16 14:38 36.97668 30.77709 9962 ft 214 kts 356°
2026-04-16 14:39 36.99134 30.77532 9598 ft 211 kts 356°
2026-04-16 14:39 37.00592 30.77357 9185 ft 210 kts 356°
2026-04-16 14:39 37.02048 30.77181 8734 ft 212 kts 356°
2026-04-16 14:39 37.03530 30.77001 8235 ft 213 kts 356°
2026-04-16 14:40 37.04964 30.76826 7922 ft 207 kts 356°
2026-04-16 14:40 37.06380 30.76655 7620 ft 202 kts 356°
2026-04-16 14:40 37.07824 30.76483 7378 ft 209 kts 356°
2026-04-16 14:40 37.09279 30.76307 7095 ft 216 kts 356°
2026-04-16 14:41 37.10758 30.76480 6789 ft 214 kts 24°
2026-04-16 14:41 37.11886 30.77623 6523 ft 212 kts 57°
2026-04-16 14:41 37.12298 30.79385 6236 ft 215 kts 91°
2026-04-16 14:41 37.11784 30.81113 5935 ft 218 kts 130°
2026-04-16 14:42 37.10466 30.82015 5642 ft 223 kts 171°
2026-04-16 14:42 37.08907 30.81966 5357 ft 226 kts 186°
2026-04-16 14:42 37.07352 30.81695 5142 ft 224 kts 187°
2026-04-16 14:42 37.05832 30.81446 5063 ft 215 kts 186°
2026-04-16 14:43 37.04391 30.81243 4953 ft 204 kts 185°
2026-04-16 14:43 37.02980 30.81047 4608 ft 200 kts 186°
2026-04-16 14:43 37.01644 30.80857 4290 ft 190 kts 186°
2026-04-16 14:43 37.00340 30.80673 3833 ft 187 kts 186°
2026-04-16 14:44 36.99027 30.80488 3128 ft 195 kts 187°
2026-04-16 14:44 36.97649 30.80296 2334 ft 202 kts 187°
2026-04-16 14:44 36.96257 30.80096 1571 ft 200 kts 187°
2026-04-16 14:44 36.94900 30.79900 997 ft 187 kts 184°
2026-04-16 14:45 36.93709 30.79731 714 ft 156 kts 186°
2026-04-16 14:45 36.92714 30.79617 467 ft 135 kts 183°
2026-04-16 14:45 36.91818 30.79504 254 ft 121 kts 184°
2026-04-16 14:45 36.91044 30.79415 194 ft 98 kts 185°
2026-04-16 14:46 36.90479 30.79336 196 ft 73 kts 186°
2026-04-16 14:46 36.89976 30.79267 189 ft 68 kts 186°
2026-04-16 14:46 36.89578 30.79243 198 ft 45 kts 167°
2026-04-16 14:46 36.89450 30.79310 196 ft 14 kts 156°
2026-04-16 14:47 36.89391 30.79379 204 ft 5 kts 78°
2026-04-16 14:47 36.89432 30.79405 197 ft 10 kts
2026-04-16 14:47 36.89560 30.79427 197 ft 27 kts
2026-04-16 14:47 36.89790 30.79458 194 ft 39 kts
2026-04-16 14:48 36.90091 30.79498 204 ft 47 kts
2026-04-16 14:48 36.90430 30.79545 201 ft 50 kts
2026-04-16 14:48 36.90682 30.79580 191 ft 29 kts
2026-04-16 14:48 36.90911 30.79613 204 ft 38 kts
2026-04-16 14:49 36.91146 30.79645 193 ft 26 kts
2026-04-16 14:49 36.91207 30.79750 198 ft 11 kts 96°
2026-04-16 14:49 36.91206 30.79868 202 ft 8 kts 74°
2026-04-16 14:49 36.91253 30.79887 191 ft 15 kts
2026-04-16 14:50 36.91383 30.79905 195 ft 10 kts
2026-04-16 14:50 36.91399 30.79983 195 ft 13 kts 94°
2026-04-16 14:50 36.91390 30.80098 191 ft 8 kts 76°
2026-04-16 14:50 36.91435 30.80119 191 ft 0 kts